JZA734 CYEG-CYYC

Flight info

Callsign JZA734
Flight time 0h 42m
Altitude 16000
Route ANTID T652 SEKAN/N0307F150 T652 ADVOX ADVOX9
Aircraft DH8D/M-SDE2E3FGRY/H

Departure

Time 2026-04-29 00:19
Airport Edmonton International Airport (CYEG)

Arrival

Time 2026-04-29 01:01
Airport Calgary International Airport (CYYC)
Time Latitude Longitude Altitude Speed Heading
2026-04-28 23:57 53.30709 -113.58664 2333 ft 0 kts 354°
2026-04-29 00:11 53.30697 -113.58666 2333 ft 2 kts 358°
2026-04-29 00:12 53.30682 -113.58664 2333 ft 2 kts 354°
2026-04-29 00:12 53.30667 -113.58662 2333 ft 2 kts 354°
2026-04-29 00:12 53.30653 -113.58660 2333 ft 2 kts 354°
2026-04-29 00:12 53.30630 -113.58659 2333 ft 2 kts 354°
2026-04-29 00:13 53.30600 -113.58655 2334 ft 2 kts 355°
2026-04-29 00:13 53.30586 -113.58652 2334 ft 0 kts 322°
2026-04-29 00:13 53.30584 -113.58649 2334 ft 0 kts 305°
2026-04-29 00:15 53.30585 -113.58650 2334 ft 0 kts 305°
2026-04-29 00:16 53.30592 -113.58667 2333 ft 2 kts 304°
2026-04-29 00:16 53.30599 -113.58729 2332 ft 12 kts 262°
2026-04-29 00:16 53.30523 -113.58902 2328 ft 20 kts 278°
2026-04-29 00:16 53.30626 -113.59092 2324 ft 19 kts 317°
2026-04-29 00:17 53.30700 -113.59214 2323 ft 12 kts 313°
2026-04-29 00:17 53.30753 -113.59302 2322 ft 11 kts 316°
2026-04-29 00:17 53.30808 -113.59387 2320 ft 8 kts 315°
2026-04-29 00:17 53.30857 -113.59467 2320 ft 14 kts 314°
2026-04-29 00:18 53.30906 -113.59566 2319 ft 6 kts 319°
2026-04-29 00:18 53.30954 -113.59544 2318 ft 13 kts 35°
2026-04-29 00:18 53.31102 -113.59367 2317 ft 52 kts 34°
2026-04-29 00:18 53.31643 -113.58740 2319 ft 129 kts 34°
2026-04-29 00:19 53.32435 -113.57778 2552 ft 153 kts 34°
2026-04-29 00:19 53.33292 -113.56574 3031 ft 170 kts 41°
2026-04-29 00:19 53.34258 -113.55240 3438 ft 192 kts 34°
2026-04-29 00:19 53.35377 -113.54015 4042 ft 202 kts 30°
2026-04-29 00:20 53.36588 -113.52702 4606 ft 214 kts 28°
2026-04-29 00:20 53.38085 -113.52071 4735 ft 238 kts
2026-04-29 00:20 53.39726 -113.52818 5039 ft 247 kts 329°
2026-04-29 00:20 53.40967 -113.54831 5471 ft 261 kts 304°
2026-04-29 00:21 53.41540 -113.57714 6040 ft 265 kts 281°
2026-04-29 00:21 53.41455 -113.60757 6781 ft 252 kts 265°
2026-04-29 00:21 53.41208 -113.63439 7943 ft 228 kts 264°
2026-04-29 00:21 53.40925 -113.66128 8098 ft 248 kts 264°
2026-04-29 00:22 53.40646 -113.68586 9590 ft 206 kts 265°
2026-04-29 00:22 53.40385 -113.70925 10183 ft 215 kts 265°
2026-04-29 00:22 53.40072 -113.73515 10499 ft 233 kts 264°
2026-04-29 00:22 53.39747 -113.76129 11312 ft 228 kts 264°
2026-04-29 00:23 53.39421 -113.78800 11874 ft 237 kts 264°
2026-04-29 00:23 53.39103 -113.81458 12602 ft 238 kts 264°
2026-04-29 00:23 53.38782 -113.84188 13282 ft 240 kts 265°
2026-04-29 00:23 53.38497 -113.86918 13968 ft 241 kts 267°
2026-04-29 00:24 53.37983 -113.89597 14580 ft 255 kts 241°
2026-04-29 00:24 53.36562 -113.91447 15166 ft 271 kts 203°
2026-04-29 00:24 53.34690 -113.92017 15775 ft 281 kts 189°
2026-04-29 00:24 53.32701 -113.92444 15922 ft 304 kts 191°
2026-04-29 00:25 53.30494 -113.93040 15937 ft 325 kts 192°
2026-04-29 00:25 53.28214 -113.93742 15889 ft 337 kts 193°
2026-04-29 00:25 53.25941 -113.94489 15865 ft 334 kts 194°
2026-04-29 00:25 53.23683 -113.95269 15878 ft 330 kts 194°
2026-04-29 00:26 53.21447 -113.96072 15893 ft 327 kts 195°
2026-04-29 00:26 53.19237 -113.96889 15885 ft 326 kts 195°
2026-04-29 00:26 53.17053 -113.97711 15887 ft 324 kts 195°
2026-04-29 00:26 53.14854 -113.98551 15881 ft 322 kts 195°
2026-04-29 00:27 53.12677 -113.99391 15880 ft 321 kts 196°
2026-04-29 00:27 53.10513 -114.00232 15877 ft 320 kts 196°
2026-04-29 00:27 53.08364 -114.01072 15881 ft 319 kts 196°
2026-04-29 00:27 53.06205 -114.01918 15879 ft 318 kts 196°
2026-04-29 00:28 53.04073 -114.02756 15879 ft 317 kts 196°
2026-04-29 00:28 53.01909 -114.03607 15875 ft 317 kts 196°
2026-04-29 00:28 52.99762 -114.04452 15900 ft 315 kts 196°
2026-04-29 00:28 52.97650 -114.05285 15913 ft 316 kts 196°
2026-04-29 00:29 52.95498 -114.06132 15916 ft 320 kts 196°
2026-04-29 00:29 52.93322 -114.06991 15909 ft 324 kts 196°
2026-04-29 00:29 52.91129 -114.07854 15908 ft 326 kts 196°
2026-04-29 00:29 52.88900 -114.08730 15909 ft 328 kts 196°
2026-04-29 00:30 52.86680 -114.09603 15909 ft 330 kts 196°
2026-04-29 00:30 52.84438 -114.10483 15907 ft 331 kts 196°
2026-04-29 00:30 52.82225 -114.11351 15906 ft 332 kts 196°
2026-04-29 00:30 52.79967 -114.12235 15903 ft 333 kts 196°
2026-04-29 00:31 52.77700 -114.13123 15905 ft 334 kts 196°
2026-04-29 00:31 52.75464 -114.13998 15901 ft 335 kts 196°
2026-04-29 00:31 52.73179 -114.14890 15904 ft 335 kts 196°
2026-04-29 00:31 52.70914 -114.15774 15898 ft 335 kts 196°
2026-04-29 00:32 52.68673 -114.16647 15903 ft 335 kts 196°
2026-04-29 00:32 52.66411 -114.17529 15905 ft 336 kts 196°
2026-04-29 00:32 52.64123 -114.18419 15904 ft 336 kts 196°
2026-04-29 00:32 52.61879 -114.19292 15895 ft 336 kts 196°
2026-04-29 00:33 52.59608 -114.20173 15902 ft 336 kts 196°
2026-04-29 00:33 52.57330 -114.21056 15903 ft 336 kts 196°
2026-04-29 00:33 52.55043 -114.21943 15903 ft 336 kts 196°
2026-04-29 00:33 52.52798 -114.22811 15900 ft 336 kts 196°
2026-04-29 00:34 52.50507 -114.23698 15911 ft 336 kts 196°
2026-04-29 00:34 52.48261 -114.24565 15901 ft 336 kts 196°
2026-04-29 00:34 52.45965 -114.25451 15898 ft 336 kts 196°
2026-04-29 00:34 52.43708 -114.26321 15903 ft 336 kts 196°
2026-04-29 00:35 52.41409 -114.27206 15901 ft 337 kts 196°
2026-04-29 00:35 52.39143 -114.28077 15903 ft 336 kts 196°
2026-04-29 00:35 52.36879 -114.28947 15898 ft 336 kts 196°
2026-04-29 00:35 52.34593 -114.29824 15898 ft 336 kts 196°
2026-04-29 00:36 52.32347 -114.30685 15899 ft 336 kts 196°
2026-04-29 00:36 52.30066 -114.31559 15900 ft 336 kts 196°
2026-04-29 00:36 52.27790 -114.32430 15902 ft 336 kts 196°
2026-04-29 00:36 52.25539 -114.33290 15904 ft 336 kts 196°
2026-04-29 00:37 52.23246 -114.34165 15900 ft 336 kts 196°
2026-04-29 00:37 52.20985 -114.35028 15901 ft 336 kts 196°
2026-04-29 00:37 52.18715 -114.35892 15901 ft 336 kts 196°
2026-04-29 00:37 52.16449 -114.36755 15904 ft 336 kts 196°
2026-04-29 00:38 52.14173 -114.37620 15903 ft 336 kts 196°
2026-04-29 00:38 52.11901 -114.38483 15901 ft 336 kts 196°
2026-04-29 00:38 52.09614 -114.39351 15900 ft 336 kts 196°
2026-04-29 00:38 52.07342 -114.40212 15898 ft 336 kts 196°
2026-04-29 00:39 52.05070 -114.41072 15894 ft 336 kts 196°
2026-04-29 00:39 52.02805 -114.41929 15899 ft 336 kts 196°
2026-04-29 00:39 52.00534 -114.42787 15902 ft 336 kts 196°
2026-04-29 00:39 51.98260 -114.43645 15897 ft 336 kts 196°
2026-04-29 00:40 51.95977 -114.44506 15896 ft 336 kts 196°
2026-04-29 00:40 51.93702 -114.45363 15898 ft 336 kts 196°
2026-04-29 00:40 51.91440 -114.46214 15892 ft 336 kts 196°
2026-04-29 00:40 51.89181 -114.47063 15891 ft 336 kts 196°
2026-04-29 00:41 51.86899 -114.47920 15889 ft 332 kts 196°
2026-04-29 00:41 51.84692 -114.48743 15889 ft 325 kts 196°
2026-04-29 00:41 51.82515 -114.49557 15882 ft 320 kts 196°
2026-04-29 00:41 51.80356 -114.50364 15891 ft 319 kts 196°
2026-04-29 00:42 51.78195 -114.51171 15899 ft 319 kts 196°
2026-04-29 00:42 51.76045 -114.51975 15895 ft 319 kts 196°
2026-04-29 00:42 51.73899 -114.52775 15898 ft 318 kts 197°
2026-04-29 00:42 51.71730 -114.53584 15888 ft 318 kts 196°
2026-04-29 00:43 51.69571 -114.54388 15892 ft 318 kts 196°
2026-04-29 00:43 51.67427 -114.55186 15890 ft 318 kts 196°
2026-04-29 00:43 51.65272 -114.55987 15894 ft 318 kts 196°
2026-04-29 00:43 51.63135 -114.56780 15890 ft 318 kts 196°
2026-04-29 00:44 51.60983 -114.57579 15888 ft 318 kts 196°
2026-04-29 00:44 51.58787 -114.58162 15820 ft 322 kts 184°
2026-04-29 00:44 51.56605 -114.57317 15572 ft 330 kts 154°
2026-04-29 00:44 51.54694 -114.55290 15356 ft 332 kts 144°
2026-04-29 00:45 51.52842 -114.53104 15109 ft 333 kts 144°
2026-04-29 00:45 51.50995 -114.50915 14851 ft 332 kts 144°
2026-04-29 00:45 51.49157 -114.48743 14597 ft 328 kts 144°
2026-04-29 00:45 51.47364 -114.46513 14334 ft 325 kts 139°
2026-04-29 00:46 51.45735 -114.44016 14061 ft 322 kts 135°
2026-04-29 00:46 51.44149 -114.41499 13756 ft 321 kts 135°
2026-04-29 00:46 51.42567 -114.38994 13443 ft 321 kts 135°
2026-04-29 00:46 51.40986 -114.36498 13133 ft 319 kts 135°
2026-04-29 00:47 51.39411 -114.34016 12755 ft 317 kts 135°
2026-04-29 00:47 51.37858 -114.31580 12382 ft 315 kts 135°
2026-04-29 00:47 51.36295 -114.29132 11995 ft 313 kts 135°
2026-04-29 00:47 51.34755 -114.26725 11577 ft 312 kts 135°
2026-04-29 00:48 51.33217 -114.24325 11143 ft 305 kts 135°
2026-04-29 00:48 51.31740 -114.22019 10691 ft 294 kts 135°
2026-04-29 00:48 51.30309 -114.19786 10298 ft 284 kts 135°
2026-04-29 00:48 51.28904 -114.17678 10057 ft 270 kts 142°
2026-04-29 00:49 51.27258 -114.16584 9840 ft 253 kts 175°
2026-04-29 00:49 51.25489 -114.16468 9681 ft 253 kts 181°
2026-04-29 00:49 51.23733 -114.16434 9489 ft 254 kts 181°
2026-04-29 00:49 51.21971 -114.16415 9289 ft 253 kts 182°
2026-04-29 00:50 51.20214 -114.16402 9031 ft 250 kts 182°
2026-04-29 00:50 51.18502 -114.16393 8782 ft 248 kts 182°
2026-04-29 00:50 51.16794 -114.16386 8533 ft 245 kts 182°
2026-04-29 00:50 51.15086 -114.16382 8281 ft 244 kts 182°
2026-04-29 00:51 51.13387 -114.16377 8038 ft 245 kts 181°
2026-04-29 00:51 51.11693 -114.16372 7793 ft 243 kts 182°
2026-04-29 00:51 51.10027 -114.16365 7544 ft 241 kts 181°
2026-04-29 00:51 51.08331 -114.16361 7249 ft 241 kts 181°
2026-04-29 00:52 51.06678 -114.16357 6970 ft 240 kts 181°
2026-04-29 00:52 51.05019 -114.16354 6775 ft 235 kts 181°
2026-04-29 00:52 51.03386 -114.16350 6597 ft 234 kts 180°
2026-04-29 00:52 51.01759 -114.16348 6434 ft 238 kts 181°
2026-04-29 00:53 51.00100 -114.16347 6277 ft 238 kts 181°
2026-04-29 00:53 50.98468 -114.16344 6297 ft 230 kts 181°
2026-04-29 00:53 50.96861 -114.16341 6255 ft 231 kts 181°
2026-04-29 00:53 50.95258 -114.16338 6168 ft 234 kts 180°
2026-04-29 00:54 50.93619 -114.16337 6077 ft 237 kts 180°
2026-04-29 00:54 50.91966 -114.16334 6037 ft 237 kts 180°
2026-04-29 00:54 50.90322 -114.16233 6009 ft 236 kts 169°
2026-04-29 00:54 50.88875 -114.15137 5996 ft 230 kts 136°
2026-04-29 00:55 50.88035 -114.13077 5993 ft 225 kts 104°
2026-04-29 00:55 50.87877 -114.10616 6002 ft 227 kts 88°
2026-04-29 00:55 50.88094 -114.08152 5988 ft 227 kts 66°
2026-04-29 00:55 50.89011 -114.06210 5996 ft 222 kts 40°
2026-04-29 00:56 50.90185 -114.04647 5991 ft 220 kts 41°
2026-04-29 00:56 50.91203 -114.02857 5987 ft 217 kts 44°
2026-04-29 00:56 50.92514 -114.01827 5987 ft 212 kts
2026-04-29 00:56 50.94010 -114.01826 6000 ft 219 kts 359°
2026-04-29 00:57 50.95538 -114.01875 5996 ft 221 kts
2026-04-29 00:57 50.97062 -114.01732 5979 ft 218 kts 356°
2026-04-29 00:57 50.98535 -114.02019 5780 ft 207 kts 355°
2026-04-29 00:57 50.99795 -114.02055 6159 ft 153 kts 360°
2026-04-29 00:58 51.00785 -114.02096 5909 ft 142 kts 358°
2026-04-29 00:58 51.01722 -114.02135 5498 ft 131 kts
2026-04-29 00:58 51.02602 -114.02139 5082 ft 125 kts
2026-04-29 00:58 51.03469 -114.02142 4600 ft 128 kts
2026-04-29 00:59 51.04356 -114.02119 4578 ft 133 kts
2026-04-29 00:59 51.05330 -114.02116 4401 ft 142 kts
2026-04-29 00:59 51.06300 -114.02126 4192 ft 132 kts
2026-04-29 00:59 51.07163 -114.02128 4040 ft 122 kts
2026-04-29 01:00 51.08025 -114.02134 3908 ft 127 kts
2026-04-29 01:00 51.08930 -114.02143 3744 ft 132 kts
2026-04-29 01:00 51.09843 -114.02138 3560 ft 128 kts
2026-04-29 01:00 51.10651 -114.02133 3544 ft 96 kts
2026-04-29 01:01 51.11139 -114.02134 3549 ft 61 kts 359°
2026-04-29 01:01 51.11529 -114.02129 3553 ft 30 kts
2026-04-29 01:01 51.11672 -114.02021 3553 ft 22 kts 33°
2026-04-29 01:01 51.11778 -114.01841 3553 ft 17 kts 45°
2026-04-29 01:02 51.11913 -114.01789 3552 ft 24 kts 17°
2026-04-29 01:02 51.12087 -114.01630 3549 ft 32 kts 29°
2026-04-29 01:02 51.12300 -114.01568 3550 ft 34 kts 360°
2026-04-29 01:02 51.12510 -114.01565 3550 ft 29 kts 12°
2026-04-29 01:03 51.12676 -114.01360 3550 ft 24 kts 41°
2026-04-29 01:03 51.12802 -114.01182 3555 ft 15 kts 46°
2026-04-29 01:03 51.12800 -114.01060 3560 ft 15 kts 124°
2026-04-29 01:03 51.12750 -114.01027 3560 ft 7 kts 211°
2026-04-29 01:04 51.12709 -114.01059 3558 ft 0 kts 205°